Location: Navarre
(52.9016°N, 113.4144°W)
Time: 19:01:11
(UTC+00:00)

Envisat - Visible Passes

Search period start: 03 October 2022 00:00
Search period end: 13 October 2022 00:00
Orbit: 764 x 765 km, 98.2° (Epoch: 03 October)

Date Brightness Start Highest point End Pass type
(mag) Time Alt. Az. Time Alt. Az. Time Alt. Az.
03 Oct 5.6 10:40:38 10° NE 10:43:59 17° E 10:47:19 10° SE visible
03 Oct 3.0 12:18:33 10° NNE 12:23:40 84° WNW 12:28:45 10° SSW visible
04 Oct 3.8 11:41:39 10° NNE 11:46:38 51° E 11:51:34 10° S visible
05 Oct 5.0 11:05:05 10° NE 11:09:24 27° E 11:13:40 10° SSE visible
05 Oct 3.1 12:43:45 10° N 12:48:43 54° WNW 12:53:39 10° SW visible
06 Oct 5.8 10:29:17 10° NE 10:31:57 14° E 10:34:35 10° ESE visible
06 Oct 3.1 12:06:40 10° NNE 12:11:48 81° ESE 12:16:53 10° SSW visible
07 Oct 4.2 11:29:52 10° NNE 11:34:42 42° E 11:39:30 10° SSE visible
07 Oct 3.6 13:09:03 10° N 13:13:40 36° WNW 13:18:15 10° SW visible
08 Oct 5.3 10:53:27 10° NE 10:57:24 22° E 11:01:19 10° SE visible
08 Oct 3.0 12:31:49 10° N 12:36:53 66° WNW 12:41:54 10° SSW visible
09 Oct 6.0 10:18:21 10° ENE 10:19:53 11° E 10:21:24 10° E visible
09 Oct 3.4 11:54:49 10° NNE 11:59:55 66° ESE 12:04:58 10° S visible
10 Oct 4.6 11:18:07 10° NNE 11:22:45 34° E 11:27:21 10° SSE visible
10 Oct 3.4 12:57:04 10° N 13:01:52 43° WNW 13:06:39 10° SW visible
11 Oct 5.6 10:41:55 10° NE 10:45:23 18° E 10:48:50 10° SE visible
11 Oct 2.9 12:19:55 10° NNE 12:25:01 81° WNW 12:30:06 10° SSW visible
12 Oct 3.7 11:42:59 10° NNE 11:48:00 54° E 11:52:57 10° S visible
12 Oct 3.9 13:22:26 10° N 13:26:46 29° WNW 13:31:06 10° WSW visible
